This is the latest recevied weather packets stored in our database for station/object YT6PT-8. If no packets are shown the sender has not sent any weather packets the latest 10 day(s).
| Time | Temp. | Humidity | Pressure | Rain* | Wind** | Luminosity | Snow |
|---|---|---|---|---|---|---|---|
| 1787735731 | 20° C | 80% | 1009.1 hPa | 0 mm | 1.34 m/s, 338° | - | - |
| 1787735432 | 20° C | 80% | 1009.1 hPa | 0 mm | 1.34 m/s, 338° | - | - |
| 1787735131 | 20° C | 80% | 1009.1 hPa | 0 mm | 2.24 m/s, 338° | - | - |
| 1787734832 | 20° C | 80% | 1009.1 hPa | 0 mm | 2.24 m/s, 338° | - | - |
| 1787734532 | 20.56° C | 79% | 1009 hPa | 0 mm | 2.24 m/s, 338° | - | - |
| 1787734232 | 20.56° C | 79% | 1009 hPa | 0 mm | 2.24 m/s, 338° | - | - |
| 1787733932 | 20.56° C | 79% | 1009 hPa | 0 mm | 1.34 m/s, 338° | - | - |
| 1787733633 | 20.56° C | 79% | 1009 hPa | 0 mm | 1.34 m/s, 338° | - | - |
| 1787733332 | 21.11° C | 77% | 1009 hPa | 0 mm | 0.45 m/s, 22° | - | - |
| 1787733036 | 21.11° C | 77% | 1009 hPa | 0 mm | 0.45 m/s, 22° | - | - |
| 1787732731 | 21.11° C | 75% | 1008.7 hPa | 0 mm | 1.79 m/s, 22° | - | - |
| 1787732449 | 21.11° C | 75% | 1008.7 hPa | 0 mm | 1.79 m/s, 22° | - | - |
| 1787732147 | 21.11° C | 77% | 1008.6 hPa | 0 mm | 1.34 m/s, 22° | - | - |
| 1787731853 | 21.11° C | 77% | 1008.6 hPa | 0 mm | 1.34 m/s, 22° | - | - |
| 1787731550 | 20.56° C | 76% | 1008.6 hPa | 0 mm | 1.79 m/s, 0° | - | - |
| 1787731251 | 20.56° C | 76% | 1008.6 hPa | 0 mm | 1.79 m/s, 0° | - | - |
| 1787730950 | 20.56° C | 77% | 1008.4 hPa | 0 mm | 1.79 m/s, 0° | - | - |
| 1787730652 | 20.56° C | 77% | 1008.4 hPa | 0 mm | 1.79 m/s, 0° | - | - |
| 1787730348 | 20° C | 76% | 1008.4 hPa | 0 mm | 0.89 m/s, 0° | - | - |
| 1787730030 | 20° C | 76% | 1008.4 hPa | 0 mm | 0.89 m/s, 0° | - | - |
| 1787729731 | 20° C | 76% | 1008.4 hPa | 0 mm | 2.24 m/s, 0° | - | - |
| 1787729433 | 20° C | 76% | 1008.4 hPa | 0 mm | 2.24 m/s, 0° | - | - |
| 1787729131 | 19.44° C | 77% | 1008.1 hPa | 0 mm | 1.34 m/s, 0° | - | - |
| 1787728838 | 19.44° C | 77% | 1008.1 hPa | 0 mm | 1.34 m/s, 0° | - | - |
| 1787728531 | 19.44° C | 80% | 1008 hPa | 0 mm | 1.79 m/s, 338° | - | - |
* Rain latest hour (hover to see other rain measurements)
** Current wind speed in m/s (hover to see current wind gust speed)